Terminal Aerodrome Forecast
Issued by NWS

Home | Current Version | Previous Version | Text Only | Print | Product List | Glossary On
Versions: 1 2 3 4 5 6 7 8 9 10 11 12 13 14
000
FTUS42 KMHX 311120
TAFOAJ
TAF
KOAJ 311120Z 3112/0112 00000KT 4SM BR BKN080
     FM311300 36004KT P6SM SCT040 BKN250
     FM311900 35005KT P6SM VCTS BKN050CB
     FM010000 15003KT P6SM VCSH SCT040 BKN250
     FM010800 20002KT 6SM BR VCSH BKN040
      AMD LTD TO CLD VIS AND WIND=

USA.gov is the U.S. government's official web portal to all federal, state and local government web resources and services.